This demonstration page uses our WeatherBlox Daily Observations layout. Learn more.

Left ArrowRight Arrow

39.12711, -84.51439

Hourly Observations for October 6, 2021

Temp ( °F °C ) Dew Point ( °F °C ) Humidity (%) Winds ( mph kmh ) Pressure ( in mb ) Visibility ( mi km ) Precip ( " mm )
12:53 am 00:53 Cloudy 69 20.6 65 18.3 87 87 N 5 7 30.16 1021 10 16 0.00 0.00
1:53 am 01:53 Mostly Clear 67 19.4 65 18.3 93 93 Calm 30.16 1021 10 16 0.00 0.00
2:53 am 02:53 Clear 66 18.9 65 18.3 96 96 Calm 30.16 1021 10 16 0.00 0.00
3:53 am 03:53 Clear 66 18.9 65 18.3 96 96 Calm 30.16 1021 10 16 0.00 0.00
4:53 am 04:53 Partly Cloudy 65 18.3 64 17.8 97 97 Calm 30.16 1021 8 13 0.00 0.00
5:53 am 05:53 Clear 65 18.3 65 18.3 100 100 Calm 30.16 1022 8 13 0.00 0.00
6:53 am 06:53 Mostly Cloudy 64 17.8 64 17.8 100 100 Calm 30.18 1022 7 11 0.00 0.00
7:53 am 07:53 Mostly Cloudy with Light Rain 65 18.3 65 18.3 100 100 NNE 3 6 30.19 1022 7 11 0.01 0.25
8:53 am 08:53 Mostly Cloudy 67 19.4 66 18.9 97 97 NE 5 7 30.20 1023 9 14 0.00 0.00
9:53 am 09:53 Mostly Cloudy 70 21.1 67 19.4 90 90 NNE 5 7 30.20 1023 10 16 0.00 0.00
10:53 am 10:53 Cloudy 71 21.7 68 20 90 90 NNE 3 6 30.22 1024 10 16 0.00 0.00
11:53 am 11:53 Cloudy 73 22.8 68 20 84 84 NNE 3 6 30.22 1023 10 16 0.00 0.00
12:53 pm 12:53 Cloudy with Light Rain 73 22.8 68 20 84 84 E 5 7 30.21 1023 5 8 0.00 0.00
1:53 pm 13:53 Cloudy with Light Rain 74 23.3 69 20.6 85 85 ESE 5 7 30.20 1023 10 16 0.00 0.00
2:53 pm 14:53 Partly Cloudy 76 24.4 68 20 77 77 SE 6 9 30.17 1022 10 16 0.00 0.00
3:53 pm 15:53 Sunny 78 25.6 67 19.4 69 69 ESE 8 13 30.15 1021 10 16 0.00 0.00
4:53 pm 16:53 Mostly Cloudy 77 25 66 18.9 69 69 SE 5 7 30.14 1021 10 16 0.00 0.00
5:53 pm 17:53 Cloudy 76 24.4 67 19.4 74 74 ENE 5 7 30.14 1021 10 16 0.00 0.00
6:53 pm 18:53 Cloudy 74 23.3 68 20 82 82 Calm 30.14 1021 10 16 0.00 0.00
7:53 pm 19:53 Mostly Clear 70 21.1 68 20 93 93 Calm 30.15 1021 10 16 0.00 0.00
8:53 pm 20:53 Mostly Cloudy 68 20 68 20 100 100 Calm 30.15 1021 10 16 0.00 0.00
9:53 pm 21:53 Cloudy with Light Rain 69 20.6 68 20 96 96 Calm 30.14 1021 10 16 0.00 0.00
10:53 pm 22:53 Cloudy 69 20.6 68 20 96 96 NE 5 7 30.14 1021 10 16 0.00 0.00
11:31 pm 23:31 Cloudy with Nearby Thunderstorms 69 20.6 68 20 96 96 undefined N/A 30.18 1022 10 16 0.00 0.00
11:38 pm 23:38 Cloudy with Nearby Thunderstorms 67 19.4 64 17.8 91 91 SSW 13 20 30.18 1022 2 3 0.16 4.06
11:53 pm 23:53 Cloudy with Nearby Thunderstorms 65 18.3 65 18.3 100 100 SSW 3 6 30.17 1022 2 3 0.31 7.87

Powered by AerisWeather